Home   Weather   Livonia   Past weeks

Flag for USA Past Weather in Livonia, Michigan, USA — Yesterday and Last 2 Weeks

Now
37 °F

Overcast.


Feels Like: 33 °F
Forecast: 30 / 40 °F
Wind: 5 mph from West

Location: Detroit Metropolitan Wayne County Airport

Current Time: Dec 3, 2016 at 7:02:20 pm

Latest Report: Dec 3, 2016 at 5:53 pm


Visibility: 10 mi

Pressure: 30.33 "Hg

Humidity: 70%

Dew Point: 28 °F

Location of LivoniaLocation

Past Weather in Livonia — Graph

°F

Livonia Temperature Yesterday

Maximum temperature yesterday: 41 °F (at 11:53 am)
Minimum temperature yesterday: 34 °F (at 10:53 pm)
Average temperature yesterday: 38 °F

High & Low Weather Summary for the Past Weeks

 TemperatureHumidityPressure
High67 °F (Nov 18, 6:53 pm)100% (Nov 24, 3:53 am)30.40 "Hg (Nov 24, 3:53 am)
Low22 °F (Nov 22, 7:53 am)45% (Nov 21, 2:53 pm)29.42 "Hg (Nov 29, 12:53 am)
Average40 °F77%30.03 "Hg
* Reported Nov 18 5:53 pm — Dec 3 5:53 pm, Livonia, Weather by CustomWeather, © 2016

Note: Actual official high and low records may vary slightly from our data, if they occured in-between our weather recording intervals... More about our weather records

Advertising

Livonia Weather History for the Previous 24 Hours

Scroll right to see more
 ConditionsComfort  
Time TempWeatherWind HumidityBarometerVisibility
5:53 pm
Sat, Dec 3
37 °FOvercast.5 mph70%30.33 "Hg10 mi
4:53 pm37 °FOvercast.8 mph73%30.34 "Hg10 mi
3:53 pm37 °FMostly cloudy.10 mph70%30.32 "Hg10 mi
2:53 pm38 °FMore clouds than sun.12 mph68%30.32 "Hg10 mi
1:53 pm38 °FMostly cloudy.9 mph70%30.32 "Hg10 mi
12:53 pm39 °FMostly cloudy.9 mph70%30.29 "Hg10 mi
11:53 am38 °FOvercast.9 mph73%30.31 "Hg10 mi
10:53 am38 °FOvercast.9 mph73%30.34 "Hg10 mi
9:53 am37 °FOvercast.7 mph76%30.34 "Hg10 mi
8:53 am36 °FMore clouds than sun.9 mph79%30.34 "Hg10 mi
7:53 am36 °FMostly cloudy.7 mph75%30.32 "Hg10 mi
6:53 am35 °FOvercast.8 mph78%30.32 "Hg10 mi
5:53 am35 °FOvercast.7 mph78%30.30 "Hg10 mi
4:53 am34 °FOvercast.5 mph79%30.29 "Hg10 mi
1:53 am34 °FPassing clouds.7 mph76%30.27 "Hg10 mi
12:53 am35 °FPassing clouds.8 mph72%30.27 "Hg10 mi
11:53 pm
Fri, Dec 2
34 °FPassing clouds.7 mph76%30.27 "Hg10 mi
10:53 pm34 °FOvercast.8 mph76%30.26 "Hg10 mi
9:53 pm36 °FOvercast.12 mph70%30.24 "Hg10 mi
8:53 pm37 °FOvercast.12 mph67%30.23 "Hg10 mi
7:53 pm37 °FOvercast.13 mph67%30.21 "Hg10 mi
Weather by CustomWeather, © 2016

See weather overviewHow to use our weather pages